Temp
87 91 92 86 76 78 73 73 80 76 78 85 86 82 80 82 79 73 85 90 91 90 92 89 82 82 83 83 82 82 82 81 82 82 82 82 81 81 81 81 81 81 81 81 81 81 81 81 81
89 83 87 85 74 70 73 78 75 80 83 84 83 82 81 80 84 83 84 89 91 92 93 92 82 82 83 82 82 82 82 82 81 81 81 81 81 81 81 81 80 81 80 80 80 80 81 81 81
88 89 83 80 77 71 73 78 80 82 83 83 81 83 83 81 84 87 91 91 92 92 92 90 82 82 82 82 82 82 82 82 81 81 80 81 81 80 80 80 80 80 80 79 79 79 80 80 80
87 87 88 76 73 77 78 82 83 80 80 82 84 80 84 89 87 91 92 92 92 92 92 84 82 82 82 82 82 81 81 81 80 80 80 80 80 80 79 79 79 79 79 78 78 78 79 79 79
90 87 77 74 75 79 82 82 83 80 82 82 83 81 81 86 89 91 91 92 91 92 92 90 82 81 82 81 81 81 80 80 79 79 79 79 80 79 79 78 78 77 77 77 77 77 78 78 78
83 85 75 71 76 80 83 84 83 83 84 82 80 80 84 88 87 89 91 91 93 92 91 91 82 81 81 81 80 80 79 79 78 78 78 78 78 78 78 77 77 76 76 76 76 76 76 76 77
80 79 74 75 74 77 81 86 83 84 84 83 85 80 86 85 89 91 92 93 92 93 91 92 89 84 80 80 79 79 78 78 77 77 77 77 77 77 76 76 76 76 75 75 74 74 74 74 74
83 80 75 76 74 75 83 82 84 85 84 85 87 81 83 90 90 90 91 91 91 91 91 93 92 88 87 86 79 78 78 77 76 76 75 75 75 75 75 75 75 75 74 73 73 72 72 72 72
79 74 71 74 74 78 82 79 83 85 85 82 85 87 86 89 88 87 87 88 88 88 91 93 92 91 90 89 83 78 77 76 74 74 72 74 82 80 79 73 73 73 72 72 71 71 71 72 71
78 72 75 80 81 79 83 81 85 79 82 81 84 88 84 87 85 84 84 84 85 84 88 91 91 90 90 88 86 87 84 84 84 82 81 83 81 81 79 73 71 71 70 70 70 70 72 76 80
75 72 76 78 79 79 79 78 81 79 79 84 85 88 85 84 84 85 86 86 86 87 86 87 90 89 88 86 86 86 84 83 83 82 82 82 79 78 79 76 77 76 72 79 77 77 77 76 77
71 76 75 77 78 77 77 81 78 80 83 87 87 89 88 83 84 84 85 87 88 87 86 84 88 87 87 85 84 85 84 83 83 81 82 80 79 79 79 79 76 76 78 76 77 77 75 75 76
72 75 76 78 77 77 79 75 78 80 85 89 87 81 84 84 86 87 89 90 90 87 86 84 86 87 87 84 84 84 84 83 83 81 80 81 78 78 78 77 77 76 77 78 77 77 77 76 76
73 74 75 77 77 78 74 76 78 81 85 85 86 85 86 85 87 87 87 88 89 89 87 86 85 87 87 84 83 82 82 82 80 79 79 79 79 78 77 76 75 76 77 78 78 77 77 76 77
74 69 75 77 77 74 76 71 73 83 85 84 85 88 88 87 87 87 88 87 90 90 88 87 85 86 86 84 82 81 80 79 78 78 78 78 77 78 77 76 76 76 77 76 77 76 77 76 76
70 72 66 73 71 74 73 68 80 81 80 80 84 86 86 88 87 89 90 90 90 91 88 87 84 84 85 84 82 81 80 79 78 79 78 77 75 77 76 75 74 75 74 74 74 74 73 74 75
67 66 67 69 73 71 70 69 79 77 77 77 83 86 87 86 87 89 90 90 89 89 89 87 85 82 83 84 82 81 80 78 79 79 77 75 74 75 75 74 73 73 72 73 72 72 73 72 72
65 65 68 65 72 69 67 67 74 79 79 77 79 83 85 87 88 91 91 89 89 89 89 88 86 82 83 82 81 79 78 77 78 78 77 76 73 73 74 73 72 72 70 70 70 70 71 71 71
65 63 62 68 73 68 66 67 71 77 77 76 78 80 84 87 92 93 93 90 87 87 87 86 84 82 83 78 76 75 73 74 75 75 76 75 74 72 72 71 71 70 69 70 70 69 67 69 70
63 61 62 68 71 67 67 66 71 75 76 78 78 80 82 85 88 90 91 88 86 86 86 86 84 82 82 78 78 77 76 76 75 73 73 73 73 72 71 70 69 70 69 68 67 66 66 68 69
62 60 62 62 67 68 66 65 75 79 77 79 80 82 82 82 83 86 87 87 84 83 84 84 84 82 81 78 77 76 77 74 71 70 70 71 72 71 71 71 71 70 69 67 67 66 64 65 66
58 65 62 60 58 56 65 54 69 76 75 77 81 83 81 78 79 78 78 80 82 82 82 84 83 83 80 77 75 72 70 66 69 70 70 70 71 70 70 71 71 70 69 68 67 67 66 64 63
61 63 61 60 58 58 60 54 68 76 71 73 75 71 71 73 73 74 75 76 79 79 80 81 81 81 80 78 74 71 70 72 73 72 69 69 69 71 70 71 70 69 69 69 68 66 66 65 65
65 62 62 59 56 48 61 58 62 67 68 72 70 69 70 71 72 72 74 74 75 76 75 77 77 77 79 76 74 70 70 73 74 71 68 68 68 69 69 69 69 69 68 67 66 66 66 65 65
63 59 51 50 48 50 59 56 62 71 68 64 63 66 68 69 69 69 69 69 71 72 73 73 74 73 76 75 73 71 71 74 73 70 69 68 68 66 67 68 68 67 66 66 66 65 64 64 63
57 55 50 40 46 50 59 49 61 74 75 68 67 67 67 67 68 68 68 68 69 71 72 71 72 73 73 74 72 72 72 73 74 71 71 70 69 68 68 67 68 68 66 66 65 64 64 64 63
56 51 55 47 51 45 51 59 68 72 67 62 63 64 62 65 66 67 68 69 69 70 71 70 70 72 72 73 73 71 73 72 71 72 72 71 71 69 67 67 66 67 66 66 65 64 63 63 64
56 58 44 48 36 37 48 49 50 55 54 59 59 60 61 62 63 66 67 67 68 69 70 71 71 70 72 72 72 71 71 72 71 73 71 69 70 69 66 65 66 66 66 65 64 63 64 64 63
49 47 47 46 44 35 32 40 56 52 56 56 57 58 58 59 61 63 65 66 67 68 69 70 70 69 70 71 71 69 70 71 72 71 71 69 69 68 66 65 65 64 64 65 64 64 64 62 62
50 43 45 35 33 38 35 33 56 57 58 58 57 56 57 59 60 62 64 65 65 66 67 67 68 68 68 69 69 68 69 70 70 70 71 70 68 67 67 66 65 65 64 65 64 63 64 62 60
MSLP
1014.24 1014.01 1013.74 1013.40 1012.69 1011.23 1010.62 1010.98 1011.32 1011.42 1011.65 1011.84 1012.19 1012.42 1012.31 1012.52 1012.50 1013.29 1014.69 1014.58 1014.86 1015.24 1015.59 1016.25 1016.73 1016.89 1016.98 1017.03 1017.16 1017.21 1017.29 1017.34 1017.37 1017.41 1017.42 1017.32 1017.25 1017.14 1017.08 1017.10 1017.07 1016.93 1016.77 1016.71 1016.65 1016.63 1016.61 1016.63 1016.55
1014.19 1014.41 1013.75 1012.56 1011.54 1010.23 1009.82 1010.71 1011.07 1011.35 1011.76 1012.31 1012.60 1012.76 1012.56 1012.13 1013.26 1013.78 1014.33 1014.77 1014.92 1015.23 1015.48 1015.81 1016.75 1016.90 1017.06 1017.22 1017.33 1017.48 1017.44 1017.65 1017.80 1017.81 1017.81 1017.83 1017.80 1017.74 1017.67 1017.54 1017.44 1017.29 1017.18 1017.04 1016.88 1016.83 1016.81 1016.80 1016.79
1014.02 1013.75 1012.76 1011.72 1010.77 1010.03 1009.96 1010.65 1010.88 1011.57 1012.21 1012.32 1012.35 1012.85 1012.52 1012.34 1013.28 1013.37 1013.95 1014.71 1014.88 1015.24 1015.57 1016.01 1016.80 1016.94 1017.18 1017.39 1017.60 1017.69 1017.76 1017.87 1017.95 1018.01 1018.08 1018.01 1018.00 1017.98 1017.92 1017.87 1017.81 1017.70 1017.58 1017.46 1017.37 1017.10 1017.04 1017.01 1016.99
1013.65 1013.08 1012.27 1011.19 1010.19 1010.29 1010.33 1010.59 1010.96 1011.75 1012.47 1012.63 1012.44 1012.25 1012.99 1012.93 1013.16 1013.34 1014.13 1014.45 1014.90 1015.23 1015.68 1016.52 1016.86 1017.08 1017.29 1017.53 1017.76 1017.90 1017.98 1018.10 1018.24 1018.17 1018.27 1018.28 1018.29 1018.29 1018.26 1018.24 1018.16 1017.96 1017.96 1018.00 1017.78 1017.53 1017.35 1017.24 1017.21
1013.31 1012.24 1011.13 1010.66 1010.31 1010.46 1010.53 1010.91 1011.21 1011.43 1011.66 1012.00 1012.52 1011.91 1012.38 1013.18 1013.65 1013.81 1014.16 1014.50 1014.76 1015.14 1015.59 1016.23 1016.91 1017.17 1017.42 1017.73 1017.95 1018.07 1018.17 1018.33 1018.49 1018.51 1018.53 1018.53 1018.53 1018.60 1018.61 1018.57 1018.52 1018.48 1018.39 1018.42 1018.24 1017.99 1017.76 1017.64 1017.48
1012.48 1012.05 1010.75 1010.12 1009.90 1010.38 1010.56 1010.85 1011.13 1011.12 1011.35 1011.99 1012.38 1012.17 1012.08 1012.96 1013.55 1013.84 1014.22 1014.47 1014.61 1015.19 1015.60 1015.88 1016.94 1017.21 1017.51 1017.76 1018.03 1018.14 1018.35 1018.54 1018.74 1018.78 1018.80 1018.80 1018.80 1018.90 1018.86 1018.86 1018.83 1018.77 1018.80 1018.73 1018.70 1018.53 1018.38 1018.18 1017.94
1012.51 1011.78 1010.75 1010.35 1010.19 1010.20 1010.42 1010.82 1010.81 1010.71 1010.95 1011.31 1011.82 1011.54 1011.90 1012.83 1013.38 1013.77 1014.13 1014.39 1014.70 1015.04 1015.53 1015.70 1016.39 1017.10 1017.62 1017.92 1018.11 1018.29 1018.50 1018.70 1018.95 1019.02 1019.04 1019.07 1019.10 1019.21 1019.23 1019.22 1019.17 1019.06 1019.05 1019.12 1019.10 1019.05 1018.90 1018.71 1018.52
1013.19 1012.24 1011.11 1010.68 1010.31 1010.05 1010.45 1010.95 1010.92 1010.70 1010.47 1011.77 1011.91 1011.05 1011.09 1011.82 1013.06 1013.71 1014.09 1014.38 1014.74 1015.04 1015.27 1015.26 1015.76 1016.72 1017.12 1017.73 1018.22 1018.37 1018.56 1018.83 1019.10 1019.24 1019.28 1019.31 1019.39 1019.49 1019.53 1019.44 1019.58 1019.49 1019.39 1019.41 1019.46 1019.45 1019.36 1019.20 1019.05
1013.78 1012.45 1011.09 1010.74 1010.76 1010.41 1010.94 1010.92 1011.18 1011.22 1010.94 1011.55 1011.59 1011.26 1011.93 1012.37 1013.16 1013.59 1013.98 1014.25 1014.54 1014.89 1015.00 1015.05 1015.39 1015.92 1016.46 1016.97 1017.90 1018.43 1018.64 1018.97 1019.24 1019.53 1019.66 1019.52 1019.08 1019.16 1019.30 1019.85 1019.86 1019.90 1019.87 1019.75 1019.73 1019.73 1019.66 1019.51 1019.42
1013.39 1012.54 1011.43 1011.41 1011.32 1011.08 1011.00 1011.09 1010.80 1011.31 1010.85 1010.95 1011.06 1011.40 1012.28 1012.49 1012.90 1013.06 1013.32 1013.59 1014.05 1014.57 1014.79 1014.98 1015.32 1015.63 1016.17 1016.73 1017.44 1017.55 1018.07 1018.36 1018.54 1018.85 1019.12 1018.95 1019.15 1019.24 1019.43 1020.05 1020.23 1020.28 1020.28 1020.19 1019.99 1019.84 1019.66 1019.24 1019.05
1013.68 1012.61 1012.54 1012.11 1012.07 1012.00 1011.68 1011.42 1011.45 1010.89 1010.12 1010.16 1009.92 1010.20 1011.65 1012.14 1012.37 1012.48 1012.67 1012.92 1013.26 1013.89 1014.56 1014.88 1015.04 1015.48 1016.00 1016.60 1016.93 1017.38 1017.86 1018.18 1018.50 1018.70 1018.81 1018.94 1019.28 1019.58 1019.52 1019.90 1019.96 1020.01 1020.32 1019.83 1019.79 1019.48 1019.49 1019.63 1019.45
1013.67 1013.17 1013.08 1012.67 1012.60 1012.31 1011.87 1011.46 1011.01 1010.45 1009.76 1010.02 1010.22 1010.19 1010.66 1011.49 1011.48 1011.59 1011.77 1012.02 1012.46 1013.21 1013.91 1015.00 1014.84 1015.32 1015.75 1016.38 1016.80 1016.94 1017.33 1017.77 1018.05 1018.50 1018.55 1018.81 1019.01 1019.17 1019.39 1019.50 1019.87 1020.01 1019.95 1019.97 1019.90 1019.80 1019.78 1019.71 1019.66
1013.55 1013.08 1013.00 1012.80 1012.72 1012.39 1012.03 1011.30 1010.62 1009.73 1009.84 1009.79 1010.00 1010.59 1010.46 1010.67 1010.75 1010.95 1011.09 1011.46 1011.92 1012.49 1013.28 1014.14 1014.65 1014.87 1015.31 1015.98 1016.41 1016.68 1016.85 1017.35 1017.69 1018.17 1018.49 1018.47 1018.75 1018.92 1019.28 1019.52 1019.70 1019.88 1020.00 1019.92 1019.97 1019.92 1019.85 1019.72 1019.70
1013.70 1013.37 1012.80 1012.43 1012.13 1011.94 1011.53 1010.63 1010.52 1009.40 1009.69 1009.43 1009.43 1009.55 1009.75 1009.86 1009.93 1010.25 1010.55 1010.65 1011.11 1011.68 1012.40 1013.30 1013.82 1014.17 1014.62 1015.30 1015.88 1016.26 1016.66 1016.97 1017.57 1017.98 1018.28 1018.43 1018.50 1018.78 1019.15 1019.43 1019.67 1019.79 1019.95 1020.07 1019.97 1019.97 1020.01 1019.98 1019.80
1013.79 1013.15 1012.14 1011.59 1011.75 1011.58 1011.44 1010.14 1009.46 1009.30 1009.22 1008.87 1008.77 1008.60 1008.76 1008.93 1009.43 1009.28 1009.38 1009.87 1010.20 1010.54 1011.43 1012.17 1012.94 1013.48 1013.92 1014.67 1015.37 1015.98 1016.52 1016.93 1017.28 1017.71 1018.09 1018.34 1018.47 1018.63 1019.01 1019.20 1019.43 1019.62 1019.83 1020.04 1020.12 1020.08 1020.10 1020.11 1020.10
1013.41 1012.75 1011.67 1011.23 1011.68 1011.46 1011.64 1008.84 1008.65 1009.10 1008.98 1008.54 1008.23 1007.97 1007.99 1007.91 1008.45 1008.61 1008.76 1009.15 1009.62 1009.89 1010.50 1011.38 1012.27 1012.97 1013.40 1014.05 1014.77 1015.52 1016.03 1016.52 1016.83 1017.27 1017.75 1018.11 1018.42 1018.58 1018.84 1019.12 1019.36 1019.67 1019.94 1020.08 1020.15 1020.16 1020.18 1020.16 1020.06
1013.15 1011.88 1011.25 1010.98 1011.37 1011.45 1011.26 1009.01 1008.48 1009.29 1008.90 1008.35 1007.71 1007.11 1006.89 1006.99 1007.16 1007.16 1007.72 1008.13 1008.63 1009.07 1009.61 1010.39 1011.49 1012.40 1012.78 1013.45 1014.24 1014.89 1015.46 1016.02 1016.34 1016.81 1017.30 1017.81 1018.23 1018.49 1018.68 1018.97 1019.32 1019.75 1019.90 1019.98 1020.12 1020.24 1020.16 1020.07 1020.11
1012.35 1012.06 1011.53 1011.26 1010.89 1011.43 1010.83 1009.42 1008.45 1008.13 1008.01 1007.54 1007.04 1006.43 1005.86 1005.52 1005.42 1005.64 1006.25 1007.17 1007.79 1008.30 1008.84 1009.37 1010.29 1011.50 1012.06 1012.87 1013.68 1014.30 1014.98 1015.50 1015.80 1016.26 1016.78 1017.35 1017.95 1018.35 1018.50 1018.85 1019.22 1019.54 1019.79 1019.94 1020.12 1020.16 1020.31 1020.26 1020.17
1013.58 1013.02 1012.15 1011.40 1011.05 1010.97 1009.96 1008.75 1007.90 1007.16 1006.63 1006.36 1006.03 1005.82 1005.12 1004.57 1004.53 1005.04 1005.39 1006.34 1007.15 1007.57 1007.73 1008.21 1008.97 1010.00 1011.00 1011.89 1012.64 1013.40 1013.90 1014.72 1015.30 1015.90 1016.39 1016.91 1017.43 1018.02 1018.27 1018.61 1019.00 1019.39 1019.47 1019.69 1019.99 1020.18 1020.19 1020.10 1020.18
1014.04 1013.17 1012.10 1011.29 1011.00 1010.84 1009.18 1007.29 1006.93 1005.96 1005.30 1005.15 1005.39 1005.33 1004.98 1004.81 1004.85 1004.83 1005.08 1005.87 1006.52 1006.81 1007.25 1007.86 1008.25 1009.18 1009.80 1010.59 1011.07 1011.99 1012.82 1013.59 1014.42 1015.29 1015.86 1016.37 1016.85 1017.41 1017.78 1018.19 1018.59 1018.95 1019.18 1019.59 1019.92 1020.12 1020.03 1020.04 1020.22
1013.85 1013.21 1012.33 1011.74 1011.07 1010.46 1008.76 1005.74 1004.41 1004.27 1004.80 1004.80 1005.21 1005.36 1005.42 1005.42 1005.33 1005.37 1005.60 1005.93 1006.65 1007.06 1006.99 1006.95 1006.92 1007.79 1008.53 1009.48 1010.45 1011.34 1012.23 1013.21 1013.91 1014.48 1015.12 1015.63 1016.23 1016.83 1017.18 1017.64 1017.98 1018.41 1018.73 1019.09 1019.57 1019.83 1019.92 1019.68 1020.16
1013.56 1013.23 1013.22 1012.62 1011.94 1010.19 1010.01 1005.28 1004.49 1003.10 1003.85 1004.54 1004.94 1004.95 1005.71 1006.50 1007.01 1007.35 1007.27 1007.06 1006.80 1006.81 1007.07 1007.00 1007.07 1007.28 1007.95 1009.08 1009.46 1009.86 1010.29 1011.22 1011.95 1012.90 1013.91 1014.69 1015.42 1016.04 1016.61 1017.00 1017.43 1017.82 1018.28 1018.59 1019.13 1019.48 1019.60 1019.77 1019.65
1013.94 1014.11 1013.57 1012.93 1011.89 1010.69 1009.41 1008.51 1003.69 1003.18 1003.76 1005.04 1005.93 1007.40 1008.11 1008.60 1008.60 1008.33 1008.33 1008.23 1007.73 1007.45 1006.91 1006.68 1006.59 1006.73 1007.19 1007.92 1008.29 1008.50 1009.11 1009.79 1010.78 1011.87 1012.92 1013.85 1014.82 1015.35 1015.95 1016.37 1016.97 1017.37 1017.76 1018.09 1018.55 1019.00 1019.25 1019.45 1019.41
1014.81 1014.12 1013.12 1012.81 1012.10 1010.19 1008.06 1007.69 1003.58 1004.37 1005.49 1006.18 1007.82 1008.57 1009.05 1009.31 1009.34 1009.57 1009.24 1008.92 1008.25 1007.75 1007.31 1006.73 1006.34 1006.02 1006.25 1006.99 1007.50 1007.49 1007.57 1008.35 1009.35 1010.50 1011.72 1012.82 1013.69 1014.51 1015.23 1015.86 1016.31 1016.84 1017.21 1017.58 1018.15 1018.52 1018.79 1019.06 1019.23
1014.90 1014.11 1012.78 1011.80 1011.45 1009.07 1008.86 1007.86 1004.97 1005.30 1006.95 1008.69 1009.51 1009.82 1009.71 1009.95 1010.24 1010.14 1009.91 1009.53 1008.40 1007.76 1007.03 1006.69 1006.03 1005.68 1005.75 1005.95 1006.61 1007.09 1007.13 1007.49 1008.06 1009.34 1010.23 1011.35 1012.36 1013.44 1014.20 1015.00 1015.65 1016.21 1016.75 1017.16 1017.65 1018.02 1018.28 1018.61 1018.94
1015.85 1015.56 1014.81 1013.22 1011.38 1009.98 1010.06 1006.98 1005.66 1006.19 1007.28 1009.34 1010.57 1011.04 1011.41 1011.39 1010.90 1010.36 1010.05 1009.88 1009.09 1008.05 1007.21 1006.65 1005.59 1005.07 1005.43 1005.48 1005.82 1006.49 1006.99 1007.19 1007.42 1008.37 1009.13 1010.07 1010.93 1011.95 1013.07 1014.03 1014.78 1015.40 1016.14 1016.72 1017.24 1017.51 1017.82 1018.05 1018.51
1016.39 1016.53 1017.21 1015.82 1014.02 1012.19 1009.48 1007.87 1006.77 1007.14 1008.21 1010.20 1010.76 1011.05 1011.65 1011.59 1011.31 1010.60 1009.77 1009.43 1008.78 1007.98 1007.29 1006.67 1005.75 1004.95 1004.81 1004.94 1005.32 1005.78 1005.95 1006.34 1006.63 1007.38 1008.24 1008.99 1010.07 1011.14 1012.31 1013.29 1014.07 1014.76 1015.46 1016.09 1016.69 1016.95 1017.27 1017.53 1017.96
1018.17 1018.79 1018.12 1017.51 1015.30 1012.66 1009.89 1009.84 1008.95 1009.98 1011.12 1011.56 1011.42 1011.47 1011.11 1011.30 1011.20 1010.42 1009.89 1009.50 1008.93 1008.08 1007.30 1006.56 1005.99 1005.15 1004.58 1004.58 1004.73 1005.22 1005.46 1005.81 1006.46 1006.91 1007.30 1008.12 1009.17 1010.31 1011.50 1012.54 1013.41 1014.17 1014.83 1015.62 1016.09 1016.56 1016.86 1017.00 1017.40
1019.64 1019.56 1019.94 1019.88 1018.64 1016.42 1014.32 1011.58 1011.82 1012.42 1012.41 1012.27 1012.72 1012.80 1012.70 1012.09 1011.41 1010.55 1010.02 1009.33 1008.85 1008.35 1007.15 1006.42 1005.67 1005.21 1004.58 1004.35 1004.28 1004.61 1004.81 1005.25 1005.92 1006.38 1006.98 1007.60 1008.47 1009.55 1010.71 1011.69 1012.59 1013.46 1014.19 1014.84 1015.34 1015.84 1016.22 1016.66 1016.89
1020.78 1021.51 1021.57 1021.37 1020.35 1019.38 1018.30 1013.25 1015.49 1014.21 1013.95 1013.47 1013.37 1013.68 1013.45 1012.57 1011.65 1010.89 1010.15 1009.33 1008.76 1007.89 1006.97 1006.41 1005.70 1005.22 1004.93 1004.21 1003.98 1004.17 1004.37 1004.67 1005.01 1005.72 1006.39 1007.18 1007.92 1009.02 1010.02 1011.01 1011.94 1012.80 1013.56 1014.08 1014.59 1015.08 1015.46 1016.01 1016.36
Wind_Speed
5 3 4 4 5 5 1 3 1 6 6 4 6 6 2 4 5 5 5 10 8 11 9 11 9 8 7 9 9 10 10 13 13 13 12 13 14 15 15 15 13 14 12 11 10 10 9 10 10
2 3 3 2 6 6 4 3 6 5 3 5 4 6 4 2 0 4 9 10 10 10 8 8 9 11 9 11 11 10 14 11 12 12 12 11 12 12 12 13 14 13 13 14 12 10 9 9 10
4 4 4 3 3 7 5 3 5 7 6 7 5 4 2 0 3 3 5 12 11 9 7 9 8 11 12 12 11 11 12 11 11 11 11 10 9 10 11 11 12 11 12 14 14 13 11 10 8
4 4 4 6 8 1 3 1 5 8 5 5 3 4 3 1 4 6 12 13 12 9 8 12 9 11 14 13 12 12 12 12 9 10 10 10 11 10 11 12 12 12 13 15 13 13 15 13 12
2 3 6 7 10 4 4 1 8 11 8 7 8 3 3 5 4 8 15 13 12 10 8 11 10 13 14 13 11 11 12 12 10 9 10 9 9 9 9 11 11 11 12 12 13 13 13 13 13
3 4 8 11 12 5 3 4 9 11 8 6 7 5 3 4 10 12 13 13 10 10 8 10 12 14 14 14 12 12 12 11 10 10 9 9 8 9 9 9 10 11 11 12 13 13 13 13 12
4 5 11 12 13 11 6 6 11 12 11 10 1 6 1 9 12 13 13 12 10 10 9 10 13 13 13 13 13 13 12 11 10 9 10 9 9 9 9 9 9 10 10 11 12 12 13 14 14
2 3 11 10 12 15 3 7 4 11 14 4 5 6 3 8 15 13 13 11 12 10 10 11 12 14 13 13 13 13 12 11 10 9 10 10 10 9 8 7 9 9 10 10 11 11 12 13 14
2 6 12 14 12 13 3 9 5 1 10 5 9 8 4 7 15 14 14 13 12 10 12 11 12 14 13 12 12 13 13 12 12 10 9 8 5 6 7 9 9 9 10 10 10 10 9 7 11
4 5 12 7 9 9 8 10 7 7 12 12 13 12 6 14 16 17 17 16 16 16 14 13 13 14 13 9 13 11 11 8 6 7 8 5 6 5 8 9 10 10 10 10 10 9 6 3 4
2 7 5 4 7 7 9 8 5 9 14 14 16 17 13 15 17 18 18 18 17 16 14 15 15 14 14 11 8 6 5 5 5 8 7 6 6 6 4 4 4 4 2 2 3 5 5 6 4
5 6 6 6 3 5 10 7 12 15 18 6 9 9 11 17 19 21 20 20 19 18 18 17 16 15 15 9 9 8 7 7 6 7 8 6 4 5 4 3 4 3 3 3 3 3 5 6 6
8 7 7 9 10 12 12 17 18 17 15 15 12 7 12 16 20 20 20 18 17 18 19 19 19 17 15 14 10 9 9 8 7 7 8 6 6 5 5 4 4 3 3 3 3 3 3 4 5
2 10 14 12 14 11 13 19 14 9 9 14 16 18 16 17 19 19 19 20 20 19 20 21 21 20 18 15 14 10 9 8 8 7 8 8 6 6 5 5 4 4 3 2 2 2 2 2 3
6 11 13 12 9 9 6 18 17 16 16 20 20 18 17 19 18 21 21 21 21 20 20 22 22 21 20 18 15 10 9 9 8 8 10 9 8 8 7 5 5 4 4 4 3 3 2 2 1
7 8 8 5 3 2 6 21 15 4 7 12 14 14 16 19 19 22 21 20 21 20 21 22 19 21 21 18 14 11 10 9 9 8 8 10 9 9 8 6 5 5 4 3 3 3 2 0 1
4 11 12 14 2 4 10 17 10 5 7 16 18 19 16 16 18 22 21 21 22 22 21 22 22 22 22 19 13 13 13 10 9 9 9 11 11 10 8 6 6 7 5 5 4 3 2 1 1
11 12 13 14 3 7 18 25 27 24 22 22 23 22 22 22 23 22 19 21 21 21 22 22 20 23 22 15 14 11 10 10 10 10 9 13 10 11 9 7 7 7 6 5 4 4 3 1 2
12 13 18 20 21 22 21 23 24 25 23 23 23 23 23 24 22 19 15 16 19 21 23 24 23 25 18 15 15 13 13 12 11 10 13 13 11 12 10 7 8 8 7 6 6 4 4 3 2
11 15 18 17 13 14 19 29 27 27 26 23 20 19 20 19 17 17 14 13 17 21 22 23 24 24 21 15 14 14 13 12 11 10 12 14 14 13 11 10 9 10 7 8 7 6 4 2 1
11 13 16 19 20 16 18 23 11 8 7 10 11 14 17 16 16 16 17 14 11 17 20 22 25 26 24 23 14 12 12 9 11 12 12 14 15 14 13 13 10 10 9 7 8 7 6 4 2
13 5 11 14 11 10 12 20 15 6 2 3 8 13 18 19 18 17 19 18 16 14 16 20 22 24 23 24 19 23 17 15 13 14 13 14 17 16 15 14 12 11 9 9 8 7 6 5 4
11 7 11 14 16 17 12 10 3 11 9 12 18 16 16 16 18 21 19 20 18 17 16 16 20 23 24 24 23 19 21 15 12 13 17 16 15 16 16 15 14 12 9 10 10 9 8 6 4
12 10 14 9 9 9 8 14 11 8 3 16 14 17 18 19 19 20 22 22 19 18 17 15 19 21 22 23 25 25 25 22 15 16 14 13 13 13 16 16 14 13 12 11 10 10 10 8 7
10 11 8 6 7 9 4 10 17 19 13 15 16 20 27 26 23 22 22 21 23 23 21 17 16 20 22 24 26 26 24 24 23 19 15 17 14 12 16 18 16 13 13 12 11 11 10 9 8
11 6 6 11 11 18 17 16 10 12 7 14 17 17 23 27 23 24 24 24 23 23 21 22 19 18 19 22 25 23 24 15 15 19 14 13 14 14 18 18 16 16 15 13 12 9 9 9 8
5 6 10 15 21 20 15 21 22 17 14 28 28 28 30 27 25 27 25 23 22 22 23 21 19 16 16 20 20 22 22 23 19 21 19 15 16 14 18 19 17 17 16 15 13 9 11 10 9
8 11 9 7 10 14 13 23 22 20 28 29 32 35 32 29 30 25 21 21 21 20 20 20 18 16 15 16 17 17 21 22 20 18 20 19 18 18 19 19 18 17 16 15 14 11 11 10 8
14 8 5 7 10 13 19 15 20 29 32 32 30 28 28 29 27 24 21 20 19 20 20 20 17 16 14 14 15 17 18 20 20 19 19 18 19 19 19 19 19 18 17 16 14 13 11 11 10
3 8 9 10 18 18 20 27 26 26 28 27 27 23 26 26 25 23 21 19 19 19 21 20 17 16 14 13 13 16 17 19 20 20 20 19 19 19 19 19 18 18 17 16 15 14 11 11 11
Wind_Direction
288 203 171 209 240 250 87 145 27 163 175 144 157 191 257 339 324 7 135 149 145 149 153 174 154 142 138 117 103 105 102 80 69 69 56 49 44 34 38 42 44 40 57 53 55 58 57 58 54
171 127 217 255 260 274 79 142 193 170 90 169 165 196 233 319 189 116 152 164 159 155 161 155 149 152 140 119 109 101 93 95 96 87 81 77 73 67 58 44 38 38 44 46 54 57 57 57 55
205 219 243 247 265 280 330 192 180 173 159 187 182 261 316 95 167 161 121 165 165 160 161 126 164 143 127 118 118 113 112 111 102 97 82 76 78 68 66 59 57 50 48 49 45 49 58 54 52
213 192 204 249 260 259 301 155 183 164 175 212 223 215 199 219 157 170 162 165 168 160 164 131 169 147 133 131 127 126 122 112 108 91 93 79 76 72 71 63 57 57 56 47 39 44 48 49 45
232 241 242 252 264 272 231 266 186 192 174 189 205 241 237 179 153 156 159 170 174 167 164 155 161 148 140 133 139 143 122 117 112 109 99 90 87 82 73 69 63 56 58 50 47 45 46 45 36
229 278 249 261 259 256 243 203 199 212 197 156 205 241 245 120 172 170 169 176 179 169 173 150 156 151 143 142 144 133 131 128 123 115 107 98 93 93 85 79 70 65 60 57 52 53 55 52 48
280 263 270 276 271 262 258 178 209 219 216 213 273 236 77 187 184 177 179 182 181 180 180 178 163 155 150 152 147 142 137 132 129 121 113 105 101 97 83 79 74 72 69 61 59 55 57 56 56
286 266 260 255 268 268 207 190 257 231 238 79 209 238 236 177 173 177 181 187 188 187 191 193 171 176 170 160 154 147 141 136 132 124 119 110 107 103 87 104 69 72 74 67 62 60 59 59 57
276 251 258 263 258 271 204 215 185 336 238 209 201 259 77 153 165 176 184 192 196 199 199 196 187 181 182 170 155 151 143 139 134 132 130 154 124 121 101 74 84 76 74 75 69 61 60 71 67
245 253 272 313 289 282 278 254 272 233 226 228 233 225 187 167 178 185 192 197 200 199 206 198 195 189 187 174 168 171 150 165 161 164 168 142 137 104 89 95 91 83 82 78 76 65 56 30 36
154 254 345 287 286 284 280 266 248 246 253 250 242 239 195 192 193 201 204 207 207 203 195 212 198 194 191 186 179 172 173 166 169 166 163 147 136 153 138 139 137 122 102 76 85 83 57 53 43
260 254 271 292 317 281 269 288 256 251 255 308 287 270 191 206 204 208 210 212 208 204 203 205 206 198 199 192 198 185 182 178 173 179 167 162 160 156 152 143 130 136 116 101 72 77 90 91 60
242 269 279 266 280 269 264 257 263 264 257 264 244 233 220 219 219 219 221 218 213 209 205 202 208 202 202 196 198 189 190 191 177 176 182 174 166 163 155 157 153 140 141 117 105 96 99 87 74
343 286 282 279 269 257 255 264 261 254 254 263 257 247 238 231 226 226 224 224 217 214 209 206 205 205 202 200 197 194 190 189 177 179 184 184 167 163 169 165 160 154 146 140 125 111 100 97 88
293 291 288 260 266 256 267 264 247 272 266 265 268 263 255 246 240 234 227 226 222 218 212 208 205 205 204 203 198 197 192 187 185 184 183 182 175 171 171 174 174 160 162 149 145 122 121 116 115
271 266 293 119 209 194 218 279 289 316 255 269 284 277 273 263 250 245 241 233 230 226 215 211 204 207 205 205 197 197 194 194 190 186 185 183 181 179 177 177 173 169 168 172 176 168 149 92 327
189 285 287 301 202 271 223 286 283 220 265 283 277 272 266 260 251 247 242 233 227 225 221 214 205 208 206 205 199 202 199 199 193 190 189 184 183 183 180 180 171 175 174 187 183 176 237 232 292
305 285 286 278 281 248 283 273 283 280 275 270 268 268 262 259 254 249 234 231 228 225 221 218 206 210 206 200 202 202 199 202 199 198 194 185 185 185 185 180 179 180 179 181 193 197 192 277 312
289 282 281 281 290 294 276 279 281 284 277 265 262 266 268 266 268 262 256 237 231 227 221 216 211 208 200 196 197 198 201 198 199 200 196 191 186 186 186 183 181 189 191 189 197 189 206 201 312
266 277 282 287 289 293 292 289 288 274 272 273 272 274 273 284 291 284 270 245 238 233 227 224 217 209 204 197 197 199 198 200 196 195 195 194 190 187 187 185 188 190 187 187 194 204 204 207 309
263 269 285 294 311 281 301 285 288 294 278 283 271 276 291 297 301 321 333 318 266 254 243 228 218 211 208 202 192 193 194 190 194 196 195 196 193 188 193 190 191 190 192 192 197 196 208 213 190
288 325 289 296 307 299 18 297 316 330 324 307 328 359 20 13 15 11 0 352 330 288 263 254 236 226 215 203 195 191 190 189 199 192 192 189 192 190 194 192 194 192 194 196 196 194 199 216 217
293 342 307 292 282 294 271 250 186 309 357 73 51 42 33 22 14 8 0 354 350 342 307 262 245 234 220 210 205 196 199 203 191 191 188 188 189 193 193 193 193 196 196 198 195 195 198 206 220
311 298 285 268 268 255 277 221 302 38 89 9 20 22 16 10 4 356 349 345 341 341 337 296 261 243 226 214 210 207 203 201 193 188 183 186 186 190 193 196 195 197 196 195 196 199 207 204 212
330 322 295 238 212 265 65 280 256 311 32 40 23 13 4 356 353 345 343 338 338 335 337 326 276 253 238 221 218 216 215 207 197 190 184 179 183 188 193 194 195 196 194 193 195 199 204 208 215
305 309 285 289 299 302 300 260 259 328 333 38 355 348 350 343 339 338 337 332 327 329 334 331 313 264 249 234 222 221 218 215 199 195 187 184 184 185 187 190 194 193 190 192 195 198 206 208 217
26 284 337 286 275 270 258 270 274 298 5 344 333 333 337 337 338 329 326 329 325 326 330 330 322 293 258 246 231 224 218 213 204 197 192 185 184 183 185 187 190 191 191 193 195 202 203 208 220
13 339 301 268 281 273 281 310 299 341 334 331 335 329 330 334 329 325 332 332 325 325 326 329 326 307 280 256 238 229 225 216 210 203 194 186 181 181 179 184 187 189 190 194 194 203 212 213 216
311 302 299 314 282 289 298 275 348 319 319 322 326 329 327 325 326 326 327 333 329 327 328 326 331 319 294 266 242 231 224 220 212 207 200 188 179 178 179 183 185 187 191 194 196 206 208 216 225
180 135 315 289 292 281 284 277 291 307 309 312 317 332 320 314 320 314 313 322 327 331 329 327 329 328 304 280 249 237 225 216 212 207 201 187 180 179 180 182 185 187 193 195 200 206 208 216 226